sat.trackr.live / text

‹ back to catalog

GSAT-11

NORAD 43824 · 2018-100B

PAYLOAD ACTIVE UNKNOWN

§ Identity

Operator
Country
IND
Launch date
2018-12-04
Launch site
FRGUI
Launch vehicle
Mass (kg)
RCS (m²)

Purposes: comms

External: N2YO · Heavens-Above · Gunter

§ Orbital elements

Epoch: 2026-09-09T04:08:32.506944Z

Period
1,436.11 min
Inclination
0.0901°
Eccentricity
0.0006640
Mean motion
1.00271157 rev/d
Perigee alt
35,758.8 km
Apogee alt
35,814.8 km
Semi-major
42,164.9 km
B*
0.0000e+0
RAAN
269.6382°
Arg perigee
208.5580°
Mean anomaly
6.1692°
Rev number
2,832

§ Raw data

GSAT-111 43824U 18100B   26252.17259846 -.00000098  00000+0  00000+0 0  99962 43824   0.0901 269.6382 0006640 208.5580   6.1692  1.00271157 28326

JSON: /api/v1/satellites/43824 · /tle

For live sub-satellite position, see the globe view (requires WebGL).

§ Visibility from observer

Set your observer location to see the next 7 days of passes ≥ 10°. The values pass through the URL so the page stays shareable.

No JS? Fill the form by hand. The geolocation button needs JavaScript.